Flag for Germany Weather past 2 weeks in Jena, Thuringia, Germany

Now
55 °F

Clear.


Feels Like: 54 °F
Forecast: 50 / 77 °F
Wind: 7 mph from East

Location: Erfurt-Bindersleben

Current Time: Jul 31, 2015 at 11:44:09 PM

Latest Report: Jul 31, 2015 at 11:20 PM


Visibility: 10 mi

Pressure: 30.07 "Hg

Humidity: 59%

Dew point: 41 °F

Location of JenaLocation

Historic Weather in Jena — Graph

°F

Jena temperature yesterday

Maximum temperature yesterday: 66 °F (at 2:20 PM)
Minimum temperature yesterday: 48 °F (at 4:20 AM)
Average temperature yesterday: 57 °F

Past Weeks' High & Low Weather Summary

 TemperatureHumidityPressure
High91 °F (Jul 17, 3:50 PM)100% (Jul 19, 4:50 AM)30.12 "Hg (Jul 19, 4:50 AM)
Low46 °F (Jul 31, 3:50 AM)23% (Jul 17, 3:50 PM)29.62 "Hg (Jul 25, 4:50 AM)
Average66 °F65%29.90 "Hg
* Reported Jul 16 10:20 PM — Jul 31 10:20 PM, Jena, Weather by CustomWeather, © 2015

Note: Actual official high and low records may vary slightly from our data, if they occured in-between our weather recording intervals... More about our weather records

Advertising

Jena weather history for previous 24 hours

 ConditionsComfort  
Time TempWeatherWind HumidityBarometerVisibility
10:20 PM
Fri, Jul 31
55 °FClear.8 mph55%30.07 "Hg10 mi
9:50 PM57 °FSunny.6 mph51%30.07 "Hg10 mi
9:20 PM57 °FSunny.6 mph51%30.07 "Hg10 mi
8:50 PM61 °FSunny.6 mph45%30.07 "Hg10 mi
8:20 PM63 °FSunny.8 mph42%30.07 "Hg10 mi
7:50 PM64 °FSunny.7 mph37%30.07 "Hg10 mi
7:20 PM66 °FSunny.5 mph37%30.07 "Hg10 mi
6:50 PM66 °FSunny.5 mph35%30.07 "Hg10 mi
6:20 PM66 °FSunny.7 mph35%30.07 "Hg10 mi
5:50 PM66 °FPassing clouds.5 mph37%30.07 "HgN/A
5:20 PM66 °FSunny.3 mph37%30.07 "Hg10 mi
4:50 PM66 °FPassing clouds.6 mph37%30.07 "HgN/A
4:20 PM64 °FSunny.6 mph40%30.07 "Hg10 mi
3:50 PM66 °FSunny.9 mph37%30.07 "Hg10 mi
3:20 PM66 °FScattered clouds.8 mph40%30.09 "HgN/A
2:50 PM64 °FScattered clouds.6 mph40%30.09 "HgN/A
2:20 PM63 °FScattered clouds.6 mph42%30.09 "HgN/A
1:50 PM64 °FScattered clouds.6 mph43%30.12 "HgN/A
1:20 PM63 °FScattered clouds.5 mph45%30.12 "HgN/A
12:50 PM63 °FScattered clouds.6 mph49%30.12 "HgN/A
12:20 PM61 °FPartly sunny.7 mph48%30.12 "HgN/A
11:50 AM59 °FPartly sunny.6 mph59%30.12 "HgN/A
11:20 AM59 °FPartly sunny.2 mph55%30.12 "HgN/A
10:50 AM57 °FPartly sunny.5 mph63%30.12 "HgN/A
10:20 AM55 °FPartly sunny.5 mph63%30.12 "HgN/A
9:20 AM55 °FScattered clouds.6 mph72%30.12 "HgN/A
8:50 AM54 °FScattered clouds.7 mph77%30.12 "HgN/A
8:20 AM52 °FPassing clouds.8 mph88%30.12 "HgN/A
7:50 AM50 °FSunny.8 mph94%30.12 "Hg10 mi
7:20 AM48 °FPassing clouds.7 mph94%30.09 "HgN/A
6:50 AM46 °FSunny.6 mph100%30.09 "Hg10 mi
6:20 AM46 °FClear.7 mph93%30.09 "Hg10 mi
5:50 AM46 °FFog.7 mph93%30.09 "HgN/A
5:20 AM46 °FClear.7 mph93%30.09 "Hg10 mi
4:50 AM46 °FClear.7 mph93%30.09 "Hg10 mi
4:20 AM46 °FClear.7 mph93%30.09 "Hg10 mi
3:50 AM46 °FClear.8 mph87%30.07 "Hg10 mi
3:20 AM48 °FClear.8 mph94%30.07 "Hg10 mi
2:50 AM48 °FClear.8 mph94%30.07 "Hg10 mi
2:20 AM50 °FClear.9 mph88%30.07 "Hg10 mi
1:50 AM50 °FClear.9 mph88%30.07 "Hg10 mi
1:20 AM48 °FClear.8 mph87%30.07 "Hg10 mi
12:50 AM52 °FClear.8 mph82%30.07 "Hg10 mi
12:20 AM52 °FClear.8 mph77%30.07 "Hg10 mi
11:20 PM
Thu, Jul 30
54 °FClear.8 mph72%30.04 "Hg10 mi
Weather by CustomWeather, © 2015

See weather overviewHow to use our weather pages